FW0014 Weather Reports


time (UTC)temp
F
wind
direction
speed
knots
gust
knots
rain 1hr
in
rain 24hr
in
rain mn
in
humidity
%
barometer
mb
20260508141322 60 22 0.0 2.6 0.00 0.01 0.00 89 1015.3
20260508141056 60 19 0.9 2.6 0.00 0.01 0.00 89 1014.7
20260508140819 60 18 1.7 2.6 0.00 0.01 0.00 89 1015.5
20260508140553 59 101 0.9 2.6 0.00 0.01 0.00 89 1014.8
20260508140316 60 101 0.9 2.6 0.00 0.01 0.00 90 1015.5
20260508140048 59 101 0.0 1.7 0.00 0.01 0.00 90 1014.9
20260508135830 60 101 0.0 1.7 0.00 0.01 0.00 90 1015.5
20260508135533 59 101 0.0 1.7 0.00 0.01 0.00 90 1014.9
20260508135326 59 101 0.0 1.7 0.00 0.01 0.00 90 1015.6
20260508135026 59 101 0.0 1.7 0.00 0.01 0.00 90 1015.0
20260508134823 59 101 0.9 1.7 0.00 0.01 0.00 90 1015.6
20260508134511 58 101 0.0 0.9 0.00 0.01 0.00 90 1014.9
20260508134339 59 101 0.0 0.9 0.00 0.01 0.00 90 1015.6
20260508134040 58 101 0.0 0.9 0.00 0.01 0.00 90 1014.9
20260508133834 59 101 0.0 1.7 0.00 0.01 0.00 90 1015.7
20260508133532 58 101 0.0 1.7 0.00 0.01 0.00 90 1015.2
20260508133330 58 101 0.0 1.7 0.00 0.01 0.00 90 1015.9
20260508133021 58 101 0.0 0.9 0.00 0.01 0.00 90 1015.3
20260508132827 58 101 0.0 0.9 0.00 0.01 0.00 90 1015.9
20260508132514 58 102 0.0 0.9 0.00 0.01 0.00 90 1015.2
20260508132322 58 101 0.0 0.9 0.00 0.01 0.00 90 1015.9
20260508132001 58 102 0.0 0.9 0.00 0.01 0.00 90 1015.3
20260508131839 58 101 0.0 1.7 0.00 0.01 0.00 90 1015.9
20260508131535 58 101 0.0 1.7 0.00 0.01 0.00 90 1015.3
20260508131333 58 101 0.0 1.7 0.00 0.01 0.00 90 1016.0
20260508131014 58 101 0.9 1.7 0.00 0.01 0.00 90 1015.3
20260508130830 58 101 0.9 1.7 0.00 0.01 0.00 90 1016.0
20260508130506 58 101 0.0 0.9 0.00 0.01 0.00 90 1015.4
20260508130326 58 101 0.9 0.9 0.00 0.01 0.00 90 1016.1
20260508130001 58 101 0.0 1.7 0.00 0.01 0.00 90 1015.5
20260508125822 58 101 0.0 1.7 0.00 0.01 0.00 90 1016.1
20260508125557 57 101 0.0 1.7 0.00 0.01 0.00 90 1015.6
20260508125317 58 101 0.0 1.7 0.00 0.01 0.00 90 1016.3
20260508125031 57 101 0.0 0.9 0.00 0.01 0.00 90 1015.6
20260508124833 58 101 0.0 1.7 0.00 0.01 0.00 90 1016.4
20260508124514 57 101 0.0 1.7 0.00 0.01 0.00 90 1015.8
20260508124328 58 101 0.0 1.7 0.00 0.01 0.00 90 1016.4
20260508124007 57 101 0.0 2.6 0.00 0.01 0.00 90 1015.5
20260508123822 58 101 0.9 2.6 0.00 0.01 0.00 90 1016.1
20260508123601 57 101 0.9 4.3 0.00 0.01 0.00 90 1015.4
20260508123340 58 152 0.9 4.3 0.00 0.01 0.00 90 1016.1
20260508123032 57 152 1.7 4.3 0.00 0.01 0.00 90 1015.7
20260508122815 58 182 0.9 3.5 0.00 0.01 0.00 90 1016.3
20260508122512 57 181 0.9 3.5 0.00 0.01 0.00 90 1015.6
20260508122328 58 182 1.7 4.3 0.00 0.01 0.00 91 1016.3
20260508122007 57 182 1.7 4.3 0.00 0.01 0.00 91 1015.7
20260508121825 58 182 2.6 4.3 0.00 0.01 0.00 91 1016.2
20260508121610 57 182 2.6 4.3 0.00 0.01 0.00 91 1015.5
20260508121341 57 195 2.6 3.5 0.00 0.01 0.00 91 1016.1
20260508121033 57 149 0.9 1.7 0.00 0.01 0.00 91 1015.4
20260508120817 57 149 0.9 1.7 0.00 0.01 0.00 91 1015.9
20260508120514 57 149 0.0 0.9 0.00 0.01 0.00 91 1015.2
20260508120354 57 149 0.0 0.9 0.00 0.01 0.00 91 1015.9
20260508120055 57 149 0.0 1.7 0.00 0.01 0.00 91 1015.1
20260508115828 57 149 0.0 1.7 0.00 0.01 0.00 91 1015.8
20260508115526 57 149 0.0 1.7 0.00 0.01 0.00 91 1015.1
20260508115324 57 149 0.0 2.6 0.00 0.01 0.00 91 1015.7
20260508115050 57 149 0.9 4.3 0.00 0.01 0.00 91 1015.1
20260508114841 57 149 0.9 4.3 0.00 0.01 0.00 91 1015.7
20260508114522 57 149 1.7 4.3 0.00 0.01 0.00 91 1015.2
20260508114316 57 149 1.7 2.6 0.00 0.01 0.00 91 1015.8
20260508114011 57 149 0.9 2.6 0.00 0.01 0.00 91 1015.1
20260508113852 57 149 1.7 2.6 0.00 0.01 0.00 91 1015.8
20260508113542 57 149 0.9 2.6 0.00 0.01 0.00 91 1015.0
20260508113347 57 149 1.7 2.6 0.00 0.01 0.00 91 1015.6
20260508113005 57 149 1.7 2.6 0.00 0.01 0.00 91 1015.0
20260508112821 57 149 1.7 2.6 0.00 0.01 0.00 91 1015.7
20260508112536 57 149 0.9 2.6 0.00 0.01 0.00 91 1015.0
20260508112317 57 149 0.9 4.3 0.00 0.01 0.00 91 1015.5
20260508112032 57 149 0.0 4.3 0.00 0.01 0.00 91 1015.0
20260508111854 57 149 0.9 4.3 0.00 0.01 0.00 91 1015.6
20260508111559 57 149 2.6 4.3 0.00 0.01 0.00 91 1015.1
20260508111329 57 149 2.6 4.3 0.00 0.01 0.00 91 1015.8
20260508111045 57 149 0.9 2.6 0.00 0.01 0.00 91 1015.1
20260508110825 57 149 0.9 1.7 0.00 0.01 0.00 91 1015.7
20260508110538 57 149 0.0 2.6 0.00 0.01 0.00 91 1015.0
20260508110337 57 149 0.9 2.6 0.00 0.01 0.00 91 1015.6
20260508110007 57 149 0.9 2.6 0.00 0.01 0.00 91 1015.1
20260508105853 58 150 1.7 2.6 0.00 0.01 0.00 91 1015.9
20260508105541 57 149 1.7 2.6 0.00 0.01 0.00 91 1015.3
20260508105328 57 149 1.7 2.6 0.00 0.01 0.00 91 1016.0
20260508105033 57 120 0.9 2.6 0.00 0.01 0.00 91 1015.2
20260508104824 57 35 0.9 2.6 0.00 0.01 0.00 91 1015.9
20260508104529 57 35 0.0 2.6 0.00 0.01 0.00 91 1015.3
20260508104320 57 35 0.9 2.6 0.00 0.01 0.00 91 1015.9
20260508104020 57 35 0.9 2.6 0.00 0.01 0.00 91 1015.5
20260508103816 57 35 0.0 2.6 0.00 0.01 0.00 91 1016.1
20260508103514 57 35 0.0 2.6 0.00 0.01 0.00 91 1015.5
20260508103332 57 35 0.9 2.6 0.00 0.01 0.00 91 1016.0
20260508103131 57 35 0.0 0.9 0.00 0.01 0.00 91 1015.5
20260508102849 57 35 0.0 0.9 0.00 0.01 0.00 91 1016.3
20260508102529 57 35 0.0 1.7 0.00 0.01 0.00 91 1015.8
20260508102324 57 35 0.0 1.7 0.00 0.01 0.00 91 1016.5
20260508102022 57 35 0.0 2.6 0.00 0.01 0.00 91 1015.9
20260508101819 57 35 0.9 2.6 0.00 0.01 0.00 91 1016.5
20260508101514 57 35 0.0 2.6 0.00 0.01 0.00 91 1015.8
20260508101317 58 35 0.9 2.6 0.00 0.01 0.00 91 1016.4
20260508101101 57 35 0.0 1.7 0.00 0.01 0.00 91 1015.9
20260508100833 58 35 0.9 1.7 0.00 0.01 0.00 91 1016.5
20260508100553 57 35 0.0 1.7 0.00 0.01 0.00 91 1016.0
20260508100329 57 35 0.0 0.0 0.00 0.01 0.00 91 1016.7
20260508100046 57 35 0.0 0.9 0.00 0.01 0.00 91 1016.2
20260508095826 57 35 0.0 0.9 0.00 0.01 0.00 91 1016.7
20260508095540 57 35 0.0 1.7 0.00 0.01 0.00 91 1016.2
20260508095323 57 35 0.0 1.7 0.00 0.01 0.00 91 1016.7
20260508095029 57 35 0.0 1.7 0.00 0.01 0.00 91 1016.1
20260508094819 57 35 0.9 1.7 0.00 0.01 0.00 91 1016.8
20260508094522 57 35 0.0 1.7 0.00 0.01 0.00 91 1016.4
20260508094315 57 35 0.0 0.9 0.00 0.01 0.00 91 1016.9
20260508094014 57 35 0.0 0.9 0.00 0.01 0.00 91 1016.3
20260508093832 57 35 0.0 1.7 0.00 0.01 0.00 91 1016.8
20260508093505 57 35 0.0 1.7 0.00 0.01 0.00 91 1016.3
20260508093328 57 35 0.0 1.7 0.00 0.01 0.00 91 1016.8
20260508093056 57 35 0.0 1.7 0.00 0.01 0.00 91 1016.2
20260508092823 57 35 0.0 0.0 0.00 0.01 0.00 91 1016.9
20260508092548 56 35 0.0 0.9 0.00 0.01 0.00 91 1016.3
20260508092320 57 35 0.0 0.9 0.00 0.01 0.00 91 1016.9
20260508092042 56 35 0.0 0.9 0.00 0.01 0.00 91 1016.3
20260508091817 57 35 0.0 1.7 0.00 0.01 0.00 91 1016.8
20260508091536 56 35 0.0 1.7 0.00 0.01 0.00 91 1016.2
20260508091354 57 35 0.0 2.6 0.00 0.01 0.00 91 1016.6
20260508091101 56 35 0.0 3.5 0.00 0.01 0.00 91 1016.1
20260508090851 57 35 0.9 3.5 0.00 0.01 0.00 91 1016.6
20260508090530 56 35 0.9 3.5 0.00 0.01 0.00 91 1015.8
20260508090347 57 35 1.7 3.5 0.00 0.01 0.00 91 1016.5
20260508090107 56 35 0.0 2.6 0.00 0.01 0.00 91 1016.1
20260508085842 57 35 1.7 3.5 0.00 0.01 0.00 91 1016.7
20260508085526 56 294 0.0 3.5 0.00 0.01 0.00 91 1016.3
20260508085337 57 294 1.7 3.5 0.00 0.01 0.00 91 1017.0
20260508085050 56 324 1.7 3.5 0.00 0.01 0.00 91 1016.4
20260508084827 57 4 1.7 2.6 0.00 0.01 0.00 91 1016.9
20260508084546 56 4 0.0 0.0 0.00 0.01 0.00 91 1016.5
20260508084324 56 4 0.0 0.0 0.00 0.01 0.00 91 1017.0
20260508084039 56 4 0.0 0.0 0.00 0.01 0.00 91 1016.5
20260508083821 56 4 0.0 0.0 0.00 0.01 0.00 91 1017.0
20260508083529 56 4 0.0 0.0 0.00 0.01 0.00 91 1016.4
20260508083317 56 4 0.0 0.0 0.00 0.01 0.00 91 1016.9
20260508083020 56 4 0.0 0.0 0.00 0.01 0.00 91 1016.3
20260508082814 56 4 0.0 0.0 0.00 0.01 0.00 91 1016.9
20260508082546 56 4 0.0 0.0 0.00 0.01 0.00 91 1016.2
20260508082331 56 4 0.0 0.0 0.00 0.01 0.00 91 1016.7
20260508082040 55 4 0.0 0.0 0.00 0.01 0.00 91 1015.9
20260508081827 56 4 0.0 1.7 0.00 0.01 0.00 91 1016.5
20260508081536 55 4 0.0 2.6 0.00 0.01 0.00 91 1016.0
20260508081323 56 4 0.0 2.6 0.00 0.01 0.00 91 1016.5
20260508081029 55 4 0.9 2.6 0.00 0.01 0.00 91 1015.8
20260508080821 56 4 1.7 2.6 0.00 0.01 0.00 91 1016.4
20260508080521 55 4 0.0 1.7 0.00 0.01 0.00 91 1015.6
20260508080317 55 4 0.9 0.9 0.00 0.01 0.00 91 1016.3
20260508075831 55 4 0.0 0.0 0.00 0.01 0.00 91 1016.1
20260508075553 55 4 0.0 0.9 0.00 0.01 0.00 91 1015.4
20260508075328 55 4 0.0 0.9 0.00 0.01 0.00 91 1016.0
20260508075045 55 4 0.0 0.9 0.00 0.01 0.00 91 1015.3
20260508074824 55 4 0.0 0.9 0.00 0.01 0.00 91 1016.0
20260508074538 55 4 0.0 0.0 0.00 0.01 0.00 91 1015.2
20260508074320 55 4 0.0 0.0 0.00 0.01 0.00 91 1015.9
20260508074028 55 4 0.0 0.0 0.00 0.01 0.00 91 1015.3
20260508073816 55 4 0.0 0.0 0.00 0.01 0.00 90 1016.0
20260508073523 54 4 0.0 0.9 0.00 0.01 0.00 90 1015.4
20260508073332 55 4 0.0 0.9 0.00 0.01 0.00 90 1016.0
20260508073008 55 4 0.0 0.9 0.00 0.01 0.00 90 1015.4
20260508072828 55 4 0.0 0.9 0.00 0.01 0.00 90 1016.1
20260508072507 54 4 0.0 0.9 0.00 0.01 0.00 90 1015.5
20260508072324 55 4 0.0 0.9 0.00 0.01 0.00 90 1016.1
20260508072102 54 4 0.0 0.0 0.00 0.01 0.00 90 1015.5
20260508071819 55 4 0.0 0.0 0.00 0.01 0.00 90 1016.2
20260508071555 55 4 0.0 0.0 0.00 0.01 0.00 90 1015.6
20260508071315 55 4 0.0 0.0 0.00 0.01 0.00 90 1016.1
20260508071046 55 4 0.0 0.0 0.00 0.01 0.00 90 1015.5
20260508070831 55 4 0.0 0.0 0.00 0.01 0.00 90 1016.0
20260508070538 55 4 0.0 0.0 0.00 0.01 0.00 90 1015.3
20260508070326 55 4 0.0 0.0 0.00 0.01 0.00 90 1016.0
20260508070030 55 4 0.0 0.0 0.00 0.01 0.00 90 1015.4
20260508065822 56 4 0.0 0.0 0.00 0.01 0.00 90 1016.1
20260508065524 55 4 0.0 0.0 0.00 0.01 0.00 90 1015.5
20260508065319 56 4 0.0 0.0 0.00 0.01 0.00 90 1016.3
20260508065018 55 4 0.0 0.0 0.00 0.01 0.00 90 1015.7
20260508064815 56 4 0.0 0.0 0.00 0.01 0.00 90 1016.4
20260508064615 55 4 0.0 0.0 0.00 0.01 0.00 90 1015.9
20260508064333 56 4 0.0 0.0 0.00 0.01 0.00 90 1016.6
20260508064054 55 4 0.0 0.0 0.00 0.01 0.00 90 1016.0
20260508063827 56 4 0.0 0.0 0.00 0.01 0.00 90 1016.6
20260508063544 55 4 0.0 0.0 0.00 0.01 0.00 90 1015.9
20260508063324 56 4 0.0 0.0 0.00 0.01 0.00 90 1016.6
20260508063039 55 4 0.0 0.0 0.00 0.01 0.00 90 1016.0
20260508062840 56 4 0.0 0.0 0.00 0.01 0.00 89 1016.7
20260508062504 55 4 0.0 0.0 0.00 0.01 0.00 89 1016.2
20260508062336 56 4 0.0 0.0 0.00 0.01 0.00 90 1016.7
20260508062036 55 4 0.0 0.0 0.00 0.01 0.00 90 1016.2
20260508061829 56 4 0.0 0.0 0.00 0.01 0.00 89 1016.8
20260508061534 55 4 0.0 0.9 0.00 0.01 0.00 89 1016.1
20260508061326 56 4 0.0 1.7 0.00 0.01 0.00 89 1016.7
20260508061027 55 4 0.0 1.7 0.00 0.01 0.00 89 1016.1
20260508060824 56 4 0.0 1.7 0.00 0.01 0.00 89 1016.9
20260508060518 56 4 0.0 1.7 0.00 0.01 0.00 89 1016.3
20260508060319 56 4 0.0 0.0 0.00 0.01 0.00 89 1016.9
20260508060104 56 4 0.0 0.0 0.00 0.01 0.00 89 1016.3
20260508055832 56 4 0.0 0.0 0.00 0.01 0.00 89 1016.8
20260508055540 56 4 0.0 0.9 0.00 0.01 0.00 89 1016.3
20260508055329 56 4 0.0 0.9 0.00 0.01 0.00 89 1016.9
20260508055032 56 4 0.0 0.9 0.00 0.01 0.00 89 1016.3
20260508054823 56 4 0.0 0.9 0.00 0.01 0.00 89 1017.0
20260508054526 56 4 0.0 0.9 0.00 0.01 0.00 89 1016.5
20260508054319 56 4 0.0 0.9 0.00 0.01 0.00 89 1017.1
20260508054021 56 4 0.0 1.7 0.00 0.01 0.00 89 1016.5
20260508053815 56 4 0.0 1.7 0.00 0.01 0.00 89 1017.0
20260508053506 56 4 0.0 1.7 0.00 0.01 0.00 90 1016.4
20260508053331 56 4 0.9 1.7 0.00 0.01 0.00 90 1017.2
20260508053102 56 4 0.0 1.7 0.00 0.01 0.00 89 1016.4
20260508052828 56 4 0.0 2.6 0.00 0.01 0.00 89 1017.0
20260508052554 56 4 0.0 2.6 0.00 0.01 0.00 89 1016.2
20260508052325 56 4 0.9 2.6 0.00 0.01 0.00 89 1016.9
20260508052047 56 4 0.9 2.6 0.00 0.01 0.00 89 1016.3
20260508051820 56 4 0.0 0.0 0.00 0.01 0.00 89 1017.0
20260508051546 56 4 0.0 0.0 0.00 0.01 0.00 89 1016.5
20260508051316 56 4 0.0 0.0 0.00 0.01 0.00 89 1017.2
20260508051030 56 4 0.0 0.0 0.00 0.01 0.00 89 1016.5
20260508050834 56 4 0.0 0.0 0.00 0.01 0.00 89 1017.2
20260508050513 56 4 0.0 0.0 0.00 0.01 0.00 89 1016.5
20260508050322 56 4 0.0 0.0 0.00 0.01 0.00 89 1017.3
20260508050048 56 4 0.0 0.0 0.00 0.01 0.00 89 1016.7
20260508045831 56 4 0.0 0.0 0.00 0.01 0.01 89 1017.4
20260508045509 56 4 0.0 0.0 0.00 0.01 0.01 89 1016.5
20260508045350 56 4 0.0 0.0 0.00 0.01 0.01 89 1017.1
20260508045038 56 4 0.0 0.0 0.00 0.01 0.01 88 1016.4
20260508044824 57 4 0.0 0.0 0.00 0.01 0.01 88 1017.2
20260508044533 56 4 0.0 0.0 0.00 0.01 0.01 88 1016.7
20260508044340 57 4 0.0 0.0 0.00 0.01 0.01 88 1017.2
20260508044057 56 4 0.0 0.0 0.00 0.01 0.01 88 1016.5
20260508043815 57 4 0.0 0.0 0.00 0.01 0.01 88 1017.0
20260508043550 56 4 0.0 0.0 0.00 0.01 0.01 88 1016.5
20260508043331 57 4 0.0 0.0 0.00 0.01 0.01 88 1017.2
20260508043042 56 4 0.0 0.0 0.00 0.01 0.01 88 1016.7
20260508042828 57 4 0.0 0.0 0.00 0.01 0.01 88 1017.4
20260508042534 56 4 0.0 0.0 0.00 0.01 0.01 88 1016.7
20260508042325 57 4 0.0 0.0 0.00 0.01 0.01 88 1017.4
20260508042026 56 4 0.0 0.0 0.00 0.01 0.01 88 1016.8
20260508041822 57 4 0.0 0.0 0.00 0.01 0.01 88 1017.5
20260508041522 57 4 0.0 1.7 0.00 0.01 0.01 88 1016.8
20260508041320 57 4 0.0 1.7 0.00 0.01 0.01 88 1017.5
20260508041004 57 4 0.0 1.7 0.00 0.01 0.01 87 1017.0
20260508040836 57 4 0.9 1.7 0.00 0.01 0.01 88 1017.7
20260508040541 57 4 0.0 0.9 0.00 0.01 0.01 87 1016.9
20260508040332 57 4 0.0 0.9 0.00 0.01 0.01 87 1017.5
20260508040038 57 4 0.0 1.7 0.00 0.01 0.01 87 1017.0
20260508035827 57 4 0.0 1.7 0.00 0.01 0.01 87 1017.8
20260508035525 57 4 0.0 1.7 0.00 0.01 0.01 87 1017.1
20260508035322 58 4 0.9 1.7 0.00 0.01 0.01 87 1017.5
20260508035048 57 4 0.0 0.0 0.00 0.01 0.01 87 1016.7
20260508034819 58 4 0.0 0.0 0.00 0.01 0.01 87 1017.2
20260508034540 57 4 0.0 0.0 0.00 0.01 0.01 87 1016.6
20260508034315 58 4 0.0 0.0 0.00 0.01 0.01 87 1017.3
20260508034033 57 4 0.0 0.0 0.00 0.01 0.01 87 1016.6
20260508033831 58 4 0.0 0.0 0.00 0.01 0.01 86 1017.2
20260508033527 57 4 0.0 0.0 0.00 0.01 0.01 86 1016.5
20260508033329 58 4 0.0 0.0 0.00 0.01 0.01 86 1017.2
20260508033010 58 4 0.0 0.0 0.00 0.01 0.01 86 1016.6
20260508032825 58 4 0.0 0.0 0.00 0.01 0.01 86 1017.3
20260508032504 58 4 0.0 0.0 0.00 0.01 0.01 86 1016.6
20260508032322 58 4 0.0 0.0 0.00 0.01 0.01 86 1017.3
20260508032101 58 4 0.0 0.0 0.00 0.01 0.01 86 1016.6
20260508031818 58 4 0.0 0.0 0.00 0.01 0.01 86 1017.5
20260508031550 58 4 0.0 0.9 0.00 0.01 0.01 86 1016.7
20260508031315 59 4 0.0 1.7 0.00 0.01 0.01 86 1017.2
20260508031043 58 4 0.0 1.7 0.00 0.01 0.01 86 1016.7
20260508030829 59 4 0.0 1.7 0.00 0.01 0.01 86 1017.3
20260508030536 58 4 0.9 1.7 0.00 0.01 0.01 86 1016.8
20260508030326 59 4 0.9 1.7 0.00 0.01 0.01 86 1017.4
20260508030028 58 4 0.0 0.9 0.00 0.01 0.01 86 1016.8
20260508025823 59 4 0.0 0.9 0.00 0.01 0.01 86 1017.4
20260508025521 58 4 0.0 0.0 0.00 0.01 0.01 86 1016.7
20260508025319 59 4 0.0 0.9 0.00 0.01 0.01 86 1017.2
20260508025015 58 4 0.0 1.7 0.00 0.01 0.01 86 1016.6
20260508024817 59 4 0.0 2.6 0.00 0.01 0.01 86 1017.2
20260508024558 58 4 0.0 3.5 0.00 0.01 0.01 86 1016.5
20260508024333 59 4 0.9 3.5 0.00 0.01 0.01 86 1017.3
20260508024050 59 4 1.7 3.5 0.00 0.01 0.01 86 1016.5
20260508023829 59 4 1.7 3.5 0.00 0.01 0.01 85 1017.0
20260508023544 59 4 0.0 0.0 0.00 0.01 0.01 85 1016.3
20260508023345 59 4 0.0 0.9 0.00 0.01 0.01 85 1016.8
20260508023016 59 4 0.0 1.7 0.00 0.01 0.01 85 1015.9
20260508022841 59 4 0.0 1.7 0.00 0.01 0.01 85 1016.6
20260508022541 59 4 0.0 2.6 0.00 0.01 0.01 85 1015.7
20260508022315 59 4 0.0 2.6 0.00 0.01 0.01 85 1016.4
20260508022034 59 4 0.0 3.5 0.00 0.01 0.01 85 1015.5
20260508021828 59 4 1.7 4.3 0.00 0.01 0.01 85 1016.3
20260508021528 59 4 0.9 4.3 0.00 0.01 0.01 85 1015.8
20260508021324 60 4 1.7 4.3 0.00 0.01 0.01 85 1016.5
20260508021024 59 4 1.7 3.5 0.00 0.01 0.01 85 1015.7
20260508020821 60 8 1.7 3.5 0.00 0.01 0.01 84 1016.4
20260508020504 59 4 1.7 3.5 0.00 0.01 0.01 84 1015.7
20260508020317 60 354 1.7 3.5 0.00 0.01 0.01 84 1016.4
20260508020057 60 14 1.7 3.5 0.00 0.01 0.01 84 1015.7
20260508015832 60 32 2.6 3.5 0.00 0.01 0.01 84 1016.4
20260508015550 60 62 0.9 4.3 0.00 0.01 0.01 83 1015.6
20260508015327 60 62 1.7 4.3 0.00 0.01 0.01 83 1016.1
20260508015010 60 62 1.7 4.3 0.00 0.01 0.01 83 1015.3
20260508014840 61 62 2.6 4.3 0.00 0.01 0.01 83 1015.9
20260508014555 60 56 1.7 3.5 0.00 0.01 0.01 83 1015.3
20260508014328 61 52 1.7 3.5 0.00 0.01 0.01 82 1016.1
20260508014048 60 55 0.0 4.3 0.00 0.01 0.01 82 1015.7
20260508013845 61 54 0.9 4.3 0.00 0.01 0.01 81 1016.3
20260508013511 60 54 1.7 4.3 0.00 0.01 0.01 81 1015.4
20260508013321 61 63 1.7 4.3 0.00 0.01 0.01 80 1016.3
20260508013004 61 21 0.9 2.6 0.00 0.01 0.01 80 1015.7
20260508012817 61 28 0.9 2.6 0.00 0.01 0.01 80 1016.3
20260508012558 61 28 0.9 2.6 0.00 0.01 0.01 80 1015.4
20260508012314 61 67 1.7 2.6 0.00 0.01 0.01 79 1016.1
20260508012050 61 67 0.9 3.5 0.00 0.01 0.01 79 1015.4
20260508011830 62 66 0.9 3.5 0.00 0.01 0.01 79 1016.0
20260508011545 61 66 0.9 3.5 0.00 0.01 0.01 79 1015.4
20260508011327 62 66 1.7 3.5 0.00 0.01 0.01 78 1016.2
20260508011034 62 67 0.9 2.6 0.00 0.01 0.01 78 1015.6
20260508010823 62 66 0.9 2.6 0.00 0.01 0.01 78 1016.3
20260508010528 62 66 0.9 3.5 0.00 0.01 0.01 78 1015.5
20260508010338 62 66 0.9 5.2 0.00 0.01 0.01 77 1016.1
20260508010054 62 66 0.9 5.2 0.00 0.01 0.01 78 1015.2
20260508005852 62 97 1.7 5.2 0.00 0.01 0.01 77 1015.9
20260508005529 62 99 1.7 5.2 0.00 0.01 0.01 77 1015.1
20260508005327 63 66 1.7 5.2 0.00 0.01 0.01 77 1015.8
20260508005008 62 51 1.7 5.2 0.00 0.01 0.01 76 1015.3
20260508004822 63 57 2.6 7.0 0.00 0.01 0.01 76 1016.0
20260508004603 62 94 2.6 7.0 0.00 0.01 0.01 76 1015.4
20260508004320 63 70 1.7 7.0 0.00 0.01 0.01 76 1016.0
20260508004054 63 114 1.7 7.0 0.00 0.01 0.01 76 1015.4
20260508003816 63 77 2.6 5.2 0.00 0.01 0.01 76 1016.0
20260508003548 63 62 2.6 5.2 0.00 0.01 0.01 75 1015.4
20260508003332 63 39 2.6 6.1 0.00 0.01 0.01 76 1016.3
20260508003057 63 75 1.7 6.1 0.00 0.01 0.01 76 1015.5
20260508002828 63 68 2.6 5.2 0.00 0.01 0.01 76 1016.3
20260508002538 63 70 1.7 4.3 0.00 0.01 0.01 76 1015.7
20260508002343 63 88 1.7 3.5 0.00 0.01 0.01 76 1016.6
20260508002003 63 88 1.7 3.5 0.00 0.01 0.01 76 1015.9
20260508001837 63 88 2.6 3.5 0.00 0.01 0.01 76 1016.6
20260508001536 63 88 0.9 2.6 0.00 0.01 0.01 76 1016.1
20260508001333 64 88 0.9 2.6 0.00 0.01 0.01 75 1016.8
20260508001031 63 88 0.9 2.6 0.00 0.01 0.01 75 1016.2
20260508000829 64 88 1.7 2.6 0.00 0.01 0.01 75 1016.8
20260508000524 63 89 0.9 2.6 0.00 0.01 0.01 74 1016.3
20260508000324 64 88 1.7 2.6 0.00 0.01 0.01 74 1017.0
20260508000018 63 60 0.9 1.7 0.00 0.01 0.01 74 1016.5
20260507235820 64 60 0.0 2.6 0.00 0.01 0.01 75 1017.2
20260507235603 63 61 0.0 2.6 0.00 0.01 0.01 74 1016.6
20260507235317 64 60 1.7 2.6 0.00 0.01 0.01 74 1017.3
20260507235051 63 61 0.9 2.6 0.00 0.01 0.01 73 1016.6
20260507234849 64 56 0.9 2.6 0.00 0.01 0.01 74 1017.3
20260507234527 63 87 0.9 2.6 0.00 0.01 0.01 73 1016.7
20260507234325 64 77 1.7 2.6 0.00 0.01 0.01 73 1017.2
20260507234010 63 64 0.0 1.7 0.00 0.01 0.01 74 1016.7
20260507233822 64 64 0.0 1.7 0.00 0.01 0.01 74 1017.3
20260507233502 63 64 0.0 3.5 0.00 0.01 0.01 74 1016.8
20260507233317 64 64 0.9 3.5 0.00 0.01 0.01 73 1017.4
20260507233054 63 60 0.9 6.1 0.00 0.01 0.01 73 1016.7
20260507232832 64 60 0.9 6.1 0.00 0.01 0.01 73 1017.4
20260507232545 63 81 1.7 6.1 0.00 0.01 0.01 73 1016.5
20260507232349 64 102 2.6 6.1 0.00 0.01 0.01 72 1017.1
20260507232015 63 89 1.7 3.5 0.00 0.01 0.01 72 1016.7
20260507231823 64 46 2.6 3.5 0.00 0.01 0.01 72 1017.3
20260507231503 63 109 0.9 3.5 0.00 0.01 0.01 73 1016.8
20260507231318 64 137 0.9 6.1 0.00 0.01 0.01 72 1017.4
20260507231058 64 116 0.0 6.1 0.00 0.01 0.01 73 1016.6
20260507230854 64 27 1.7 6.1 0.00 0.01 0.01 73 1017.2
20260507230533 63 76 2.6 6.1 0.00 0.01 0.01 72 1016.4
20260507230329 64 78 3.5 5.2 0.00 0.01 0.01 72 1017.1
20260507230055 63 83 2.6 5.2 0.00 0.01 0.01 73 1016.6
20260507225823 64 50 2.6 4.3 0.00 0.01 0.01 73 1017.1
20260507225546 63 74 1.7 4.3 0.00 0.01 0.01 72 1016.7
20260507225321 64 89 1.7 4.3 0.00 0.01 0.01 72 1017.7
20260507225038 63 34 1.7 4.3 0.00 0.01 0.01 72 1017.0
20260507224817 64 43 1.7 5.2 0.00 0.01 0.01 73 1017.6
20260507224550 63 124 2.6 6.1 0.00 0.01 0.01 73 1016.9
20260507224353 64 64 2.6 6.1 0.00 0.01 0.01 73 1017.6
20260507224057 63 50 2.6 6.1 0.00 0.01 0.01 73 1017.1
20260507223829 64 52 2.6 3.5 0.00 0.01 0.01 73 1017.7
20260507223548 63 108 0.9 4.3 0.00 0.01 0.01 74 1016.9
20260507223343 63 107 1.7 6.1 0.00 0.01 0.01 73 1017.6
20260507223022 63 110 1.7 6.1 0.00 0.01 0.01 73 1016.9
20260507222840 63 152 2.6 6.1 0.00 0.01 0.01 73 1017.5
20260507222552 63 135 0.9 5.2 0.00 0.01 0.01 74 1016.7
20260507222315 63 139 0.9 4.3 0.00 0.01 0.01 74 1017.2
20260507222043 63 52 1.7 4.3 0.00 0.01 0.01 74 1016.8
20260507221830 63 54 1.7 5.2 0.00 0.01 0.01 74 1017.6
20260507221538 63 117 0.9 5.2 0.00 0.01 0.01 73 1017.2
20260507221325 63 117 0.9 5.2 0.00 0.01 0.01 73 1017.8
20260507221003 62 62 2.6 4.3 0.00 0.01 0.01 73 1017.1
20260507220821 63 82 1.7 6.1 0.00 0.01 0.01 73 1017.7
20260507220556 62 136 1.7 6.1 0.00 0.01 0.01 73 1017.2
20260507220316 63 66 0.9 6.1 0.00 0.01 0.01 74 1017.6
20260507220047 62 85 3.5 6.1 0.00 0.01 0.01 74 1016.7
20260507215830 63 41 3.5 7.0 0.00 0.01 0.01 75 1017.6
20260507215544 62 63 2.6 6.1 0.00 0.01 0.01 74 1017.2
20260507215326 63 107 2.6 6.1 0.00 0.01 0.01 74 1017.9
20260507215034 62 36 0.9 7.0 0.00 0.01 0.01 75 1017.5
20260507214821 63 77 0.9 7.0 0.00 0.01 0.01 74 1018.2
20260507214530 62 77 3.5 8.7 0.00 0.01 0.01 73 1017.6
20260507214317 63 106 4.3 8.7 0.00 0.01 0.01 74 1018.1
20260507214015 62 100 4.3 8.7 0.00 0.01 0.01 74 1017.4
20260507213852 63 77 3.5 8.7 0.00 0.01 0.01 76 1018.1
20260507213548 62 79 1.7 4.3 0.00 0.01 0.01 75 1017.5
20260507213328 63 62 1.7 7.0 0.00 0.01 0.01 75 1018.2
20260507213041 62 65 1.7 8.7 0.00 0.01 0.01 75 1017.8
20260507212825 63 65 1.7 8.7 0.00 0.01 0.01 76 1018.5
20260507212531 62 77 2.6 8.7 0.00 0.01 0.01 76 1017.9
20260507212342 63 83 3.5 8.7 0.00 0.01 0.01 76 1018.4
20260507212100 62 23 3.5 8.7 0.00 0.01 0.01 76 1017.8
20260507211815 63 54 3.5 8.7 0.00 0.01 0.01 76 1018.3
20260507211608 62 71 3.5 8.7 0.00 0.01 0.01 77 1017.7
20260507211332 62 27 1.7 6.1 0.00 0.01 0.01 77 1018.3
20260507211041 62 82 1.7 6.1 0.00 0.01 0.01 76 1017.8
20260507210829 62 87 2.6 4.3 0.00 0.01 0.01 76 1018.7
20260507210533 62 143 0.9 5.2 0.00 0.01 0.01 76 1018.4
20260507210326 62 143 2.6 5.2 0.00 0.01 0.01 78 1018.9
20260507210031 61 54 1.7 7.0 0.00 0.01 0.01 78 1018.4
20260507205821 62 27 2.6 7.8 0.00 0.01 0.01 78 1019.1
20260507205552 61 346 2.6 8.7 0.00 0.01 0.01 78 1018.6
20260507205317 61 359 3.5 8.7 0.00 0.01 0.01 77 1019.2
20260507205049 61 16 4.3 8.7 0.00 0.01 0.01 77 1018.6
20260507204835 61 10 3.5 7.8 0.00 0.01 0.01 79 1019.1
20260507204517 61 340 2.6 5.2 0.00 0.01 0.01 80 1018.6
20260507204330 61 359 1.7 5.2 0.00 0.01 0.01 81 1019.0
20260507204103 60 70 2.6 5.2 0.00 0.01 0.01 80 1018.3
20260507203826 60 91 2.6 6.1 0.00 0.01 0.01 81 1018.8
20260507203552 60 120 3.5 6.1 0.00 0.01 0.01 80 1018.2
20260507203317 60 93 2.6 5.2 0.00 0.01 0.01 79 1019.1
20260507203044 60 354 1.7 3.5 0.00 0.01 0.01 81 1019.2
20260507202855 60 53 0.0 3.5 0.00 0.01 0.01 80 1019.8
20260507202507 60 53 0.9 4.3 0.01 0.01 0.01 80 1019.0
20260507202330 60 314 1.7 4.3 0.01 0.01 0.01 80 1019.6
20260507202059 60 318 0.9 7.8 0.01 0.01 0.01 81 1018.8
20260507201826 60 359 1.7 7.8 0.01 0.01 0.01 81 1019.0
20260507201604 60 35 2.6 7.8 0.01 0.01 0.01 82 1018.2
20260507201322 60 14 5.2 7.8 0.01 0.01 0.01 82 1018.9
20260507201046 60 354 4.3 7.8 0.01 0.01 0.01 82 1018.4
20260507200817 60 11 2.6 10.4 0.01 0.01 0.01 83 1018.9
20260507200538 59 359 3.5 10.4 0.01 0.01 0.01 83 1018.1
20260507200333 60 4 4.3 10.4 0.01 0.01 0.01 84 1018.3
20260507200031 59 24 6.1 10.4 0.01 0.01 0.01 84 1017.2
20260507195830 60 4 6.1 7.8 0.01 0.01 0.01 84 1017.6
20260507195526 59 4 3.5 6.1 0.01 0.01 0.01 83 1017.3
20260507195325 60 4 2.6 5.2 0.01 0.01 0.01 83 1018.1
20260507195021 59 70 2.6 6.1 0.01 0.01 0.01 83 1017.5
20260507194822 60 81 1.7 5.2 0.01 0.01 0.01 83 1018.1
20260507194506 59 86 2.6 5.2 0.01 0.01 0.01 83 1017.5
20260507194318 60 110 2.6 5.2 0.01 0.01 0.01 83 1018.2
20260507194105 59 70 1.7 5.2 0.01 0.01 0.01 83 1018.0
20260507193815 60 61 2.6 5.2 0.01 0.01 0.01 83 1018.4
20260507193553 60 73 1.7 5.2 0.01 0.01 0.01 83 1018.0
20260507193331 60 47 2.6 5.2 0.01 0.01 0.01 82 1018.7
20260507193045 60 58 1.7 4.3 0.01 0.01 0.01 82 1018.5
20260507192826 60 26 2.6 4.3 0.01 0.01 0.01 80 1019.2
20260507192541 60 214 0.0 2.6 0.00 0.00 0.00 80 1019.2
20260507192321 60 214 0.9 3.5 0.00 0.00 0.00 79 1019.9
20260507192016 60 214 0.9 3.5 0.00 0.00 0.00 79 1019.8
20260507191817 60 214 0.9 4.3 0.00 0.00 0.00 79 1020.5
20260507191558 60 214 0.9 6.1 0.00 0.00 0.00 79 1019.9
20260507191351 60 214 1.7 6.1 0.00 0.00 0.00 78 1020.4
20260507191033 60 214 1.7 6.1 0.00 0.00 0.00 78 1020.0
20260507190847 60 192 4.3 6.1 0.00 0.00 0.00 78 1020.6
20260507190604 60 203 1.7 7.8 0.00 0.00 0.00 77 1019.8
20260507190344 60 305 1.7 8.7 0.00 0.00 0.00 77 1020.1
20260507190035 60 359 2.6 8.7 0.00 0.00 0.00 77 1019.1
20260507185819 60 12 4.3 9.6 0.00 0.01 0.00 76 1019.7
20260507185525 60 349 5.2 9.6 0.00 0.01 0.00 76 1019.2
20260507185316 60 48 4.3 9.6 0.00 0.01 0.00 77 1019.7
20260507185018 60 25 4.3 9.6 0.00 0.01 0.00 77 1018.9
20260507184831 60 35 5.2 7.8 0.00 0.01 0.00 77 1019.4
20260507184511 59 8 3.5 8.7 0.00 0.01 0.00 77 1019.2
20260507184326 60 10 3.5 8.7 0.00 0.01 0.00 76 1019.8
20260507184057 59 41 3.5 8.7 0.00 0.01 0.00 77 1019.2
20260507183823 59 27 3.5 8.7 0.00 0.01 0.00 77 1019.9
20260507183551 59 33 4.3 8.7 0.00 0.01 0.00 76 1019.3
20260507183320 59 16 4.3 7.0 0.00 0.01 0.00 76 1020.0
20260507183041 59 31 1.7 7.8 0.00 0.01 0.00 77 1019.5
20260507182816 59 79 1.7 7.8 0.00 0.01 0.00 77 1020.0
20260507182533 59 58 3.5 7.8 0.00 0.01 0.00 77 1019.3
20260507182331 60 32 3.5 8.7 0.00 0.01 0.00 77 1019.9
20260507182015 59 60 3.5 8.7 0.00 0.01 0.00 77 1019.3
20260507181828 60 33 4.3 8.7 0.00 0.01 0.00 77 1019.8
20260507181507 59 77 4.3 7.8 0.00 0.01 0.00 77 1019.4
20260507181324 60 82 4.3 7.0 0.00 0.01 0.00 77 1020.4
20260507181102 59 81 1.7 6.1 0.00 0.01 0.00 76 1020.1
20260507180821 60 83 0.0 6.1 0.00 0.01 0.00 77 1020.7
20260507180559 59 48 2.6 9.6 0.00 0.01 0.00 77 1019.9
20260507180316 60 106 2.6 9.6 0.00 0.01 0.00 77 1020.5
20260507180048 59 48 2.6 9.6 0.00 0.01 0.00 76 1019.8
20260507175832 60 62 5.2 9.6 0.00 0.01 0.00 76 1020.3
20260507175535 59 53 5.2 11.3 0.00 0.01 0.00 76 1019.7
20260507175328 59 69 4.3 12.2 0.00 0.01 0.00 77 1020.2
20260507175029 59 22 5.2 12.2 0.00 0.01 0.00 77 1019.6
20260507174823 59 54 5.2 12.2 0.00 0.01 0.00 77 1020.1
20260507174523 59 49 6.1 12.2 0.00 0.01 0.00 77 1019.3
20260507174340 59 23 6.1 12.2 0.00 0.01 0.00 77 1020.0
20260507174047 59 73 4.3 12.2 0.00 0.01 0.00 78 1019.5
20260507173814 59 31 6.1 12.2 0.00 0.01 0.00 77 1020.0
20260507173541 58 100 3.5 10.4 0.00 0.01 0.00 78 1019.2
20260507173331 59 48 7.0 10.4 0.00 0.01 0.00 78 1019.6
20260507173035 58 22 6.1 11.3 0.00 0.01 0.00 78 1019.0
20260507172826 59 60 5.2 11.3 0.00 0.01 0.00 78 1019.6
20260507172525 58 35 4.3 11.3 0.00 0.01 0.00 79 1019.3
20260507172322 59 77 6.1 12.2 0.00 0.01 0.00 78 1019.8
20260507172016 58 70 3.5 12.2 0.00 0.01 0.00 79 1019.3
20260507171818 59 59 5.2 12.2 0.00 0.01 0.00 79 1019.9
20260507171607 58 65 6.1 10.4 0.00 0.01 0.00 79 1019.4
20260507171314 58 27 7.0 13.0 0.00 0.01 0.00 79 1020.0
20260507171053 58 40 3.5 13.0 0.00 0.01 0.00 80 1019.5
20260507170832 58 34 5.2 13.0 0.00 0.01 0.00 80 1020.1
20260507170547 58 28 7.0 13.0 0.00 0.01 0.00 80 1019.4
20260507170329 58 81 5.2 8.7 0.00 0.01 0.00 80 1019.8
20260507170040 57 52 3.5 8.7 0.00 0.01 0.00 81 1019.3
20260507165824 58 84 4.3 8.7 0.00 0.01 0.00 81 1019.9
20260507165534 57 85 4.3 9.6 0.00 0.01 0.00 80 1019.4
20260507165320 58 59 4.3 9.6 0.00 0.01 0.00 80 1020.3
20260507165025 57 90 4.3 9.6 0.00 0.01 0.00 81 1019.8
20260507164817 58 39 4.3 7.8 0.00 0.01 0.00 81 1020.3
20260507164512 57 46 3.5 7.8 0.00 0.01 0.00 81 1020.0
20260507164354 58 25 2.6 7.8 0.00 0.01 0.00 81 1020.7
20260507164043 57 68 3.5 7.8 0.00 0.01 0.00 80 1020.2
20260507163849 58 74 4.3 7.8 0.00 0.01 0.00 80 1020.6
20260507163507 57 65 3.5 7.0 0.00 0.01 0.00 81 1020.2
20260507163320 58 108 2.6 7.0 0.00 0.01 0.00 81 1020.7
20260507163041 57 93 2.6 7.0 0.00 0.01 0.00 80 1020.1
20260507162816 58 79 3.5 6.1 0.00 0.01 0.00 81 1020.8
20260507162534 57 69 1.7 6.1 0.00 0.01 0.00 81 1020.6
20260507162332 58 58 1.7 5.2 0.00 0.01 0.00 81 1021.3
20260507162023 57 38 1.7 7.8 0.00 0.01 0.00 81 1020.7
20260507161829 57 97 1.7 8.7 0.00 0.01 0.00 81 1021.0
20260507161511 57 44 2.6 8.7 0.00 0.01 0.00 81 1020.4
20260507161325 57 30 3.5 8.7 0.00 0.01 0.00 81 1020.6
20260507161005 57 79 4.3 7.8 0.00 0.01 0.00 81 1019.6
20260507160821 57 65 4.3 7.8 0.00 0.01 0.00 81 1020.4
20260507160602 57 84 1.7 5.2 0.00 0.01 0.00 82 1020.2
20260507160318 57 52 1.7 5.2 0.00 0.01 0.00 81 1020.9
20260507160107 57 48 2.6 5.2 0.00 0.01 0.00 81 1020.7
20260507155814 57 59 0.9 8.7 0.00 0.05 0.00 82 1021.2
20260507155549 57 63 3.5 8.7 0.00 0.05 0.00 82 1020.3
20260507155329 57 60 2.6 8.7 0.00 0.05 0.00 82 1020.5
20260507155013 57 57 4.3 9.6 0.00 0.05 0.00 81 1019.8
20260507154823 57 44 4.3 9.6 0.00 0.05 0.00 81 1020.5
20260507154503 57 29 4.3 9.6 0.00 0.05 0.00 81 1020.1
20260507154320 57 65 6.1 9.6 0.00 0.05 0.00 81 1020.6
20260507154056 57 32 5.2 10.4 0.00 0.05 0.00 81 1020.2
20260507153815 57 77 4.3 10.4 0.00 0.05 0.00 81 1020.8
20260507153549 57 27 3.5 10.4 0.00 0.05 0.00 82 1020.4
20260507153331 57 46 6.1 9.6 0.00 0.05 0.00 82 1020.9
20260507153027 57 35 3.5 9.6 0.00 0.05 0.00 83 1020.3
20260507152818 57 25 3.5 9.6 0.00 0.05 0.00 83 1021.0
20260507152503 57 34 4.3 9.6 0.00 0.05 0.00 83 1020.3
20260507152313 57 39 6.1 9.6 0.00 0.05 0.00 83 1020.9
20260507152057 57 9 4.3 8.7 0.00 0.05 0.00 83 1020.4
20260507151852 57 43 4.3 8.7 0.00 0.05 0.00 83 1021.0
20260507151531 57 12 3.5 8.7 0.00 0.05 0.00 83 1020.7
20260507151328 57 64 4.3 7.8 0.00 0.05 0.00 83 1021.3
20260507151027 57 27 3.5 9.6 0.00 0.05 0.00 83 1020.6
20260507150836 57 58 3.5 10.4 0.00 0.05 0.00 83 1020.9
20260507150544 57 67 5.2 10.4 0.00 0.05 0.00 83 1020.5
20260507150350 57 21 5.2 10.4 0.00 0.05 0.00 83 1021.1
20260507150012 57 55 3.5 9.6 0.00 0.09 0.00 83 1020.5
20260507145826 57 4 5.2 9.6 0.00 0.09 0.00 84 1021.0
20260507145600 57 23 5.2 10.4 0.00 0.09 0.00 83 1020.6
20260507145321 57 68 5.2 10.4 0.00 0.09 0.00 83 1021.2
20260507145053 57 67 4.3 10.4 0.00 0.09 0.00 84 1020.5
20260507144818 57 58 5.2 10.4 0.00 0.09 0.00 84 1021.0
20260507144547 57 56 6.1 9.6 0.00 0.09 0.00 84 1020.4
20260507144333 57 73 7.0 9.6 0.00 0.09 0.00 84 1021.1
20260507144040 57 65 4.3 8.7 0.00 0.09 0.00 84 1020.6
20260507143829 57 70 4.3 8.7 0.00 0.09 0.00 84 1021.1
20260507143528 57 43 3.5 10.4 0.00 0.09 0.00 85 1020.8
20260507143345 57 45 3.5 10.4 0.00 0.09 0.00 85 1021.0
20260507143053 57 58 6.1 10.4 0.00 0.09 0.00 85 1020.1
20260507142820 57 65 4.3 9.6 0.00 0.09 0.00 85 1020.6
20260507142546 57 17 5.2 12.2 0.00 0.09 0.00 85 1020.0
20260507142352 57 75 6.1 12.2 0.00 0.09 0.00 85 1020.5
20260507142009 57 12 4.3 12.2 0.00 0.09 0.00 85 1020.0
20260507141826 57 75 5.2 12.2 0.00 0.09 0.00 85 1020.6
20260507141501 57 15 7.0 12.2 0.00 0.09 0.00 86 1019.8